Regional Weather Roundup
Issued by NWS Portland, ME

Current Version | Previous Version | Graphics & Text | Print | Product List | Glossary On
Versions: 1 2 3 4 5 6 7 8 9 10 11 12 13 14 15 16 17 18 19 20 21 22 23 24 25 26 27 28 29 30 31 32 33 34 35 36 37 38 39 40 41 42 43 44 45 46 47 48 49 50
000
ASUS41 KGYX 260410
RWRGYX
WEATHER ROUNDUP FOR MAINE AND NEW HAMPSHIRE
NATIONAL WEATHER SERVICE GRAY ME
1200 AM EDT THU MAY 26 2016

MEZ002-005-006-010-012-015-018-020-021-024-026-027-029-260500-
MAINE

CITY           SKY/WX    TMP DP  RH WIND       PRES   REMARKS
PORTLAND       CLEAR     59  57  93 W6        29.97S
SANFORD        CLEAR     55  52  88 W3        30.00R
BAR HARBOR     PTCLDY    50  49  96 CALM      29.95S FOG
WISCASSET      CLEAR     56  53  90 CALM      29.97S
ROCKLAND       PTCLDY    55  54  96 W7        29.95S
FRYEBURG       CLEAR     59  57  93 W5        30.00S
LEWISTONAUBURN MOCLDY    55  54  94 CALM      29.97S VSB 1/4
AUGUSTA        CLEAR     65  55  70 NW6       29.96S
WATERVILLE     CLEAR     66  54  65 W5        29.93S
BANGOR         PTCLDY    56  52  86 W5        29.94S
GREENVILLE       N/A     57  52  83 VRB5      29.96R
MILLINOCKET    CLOUDY    64  54  69 NW5       29.92R
HOULTON        PTCLDY    57  55  93 N5        29.89R
PRESQUE ISLE   LGT RAIN  59  56  89 NW10G18   29.92R
FRENCHVILLE    LGT RAIN  55  52  89 NW10      29.94R
CARIBOU        LGT RAIN  59  55  87 N14G20    29.91R
$$

NHZ002-005-008-009-011-012-014-260500-
NEW HAMPSHIRE

CITY           SKY/WX    TMP DP  RH WIND       PRES   REMARKS
PORTSMOUTH     PTCLDY    64  55  73 W2        29.98R
ROCHESTER      CLEAR     64  53  67 NW6       29.99R
NASHUA         CLEAR     68  56  65 W5        30.01R
MANCHESTER     CLEAR     72  53  51 N5        29.99R
CONCORD        CLEAR     62  55  77 CALM      30.01R
LACONIA        CLEAR     62  55  77 CALM      30.03R
PLYMOUTH       FAIR      57  56  94 CALM      30.02R
BERLIN         CLEAR     61  52  72 NW6       30.02S
WHITEFIELD     CLEAR     55  52  89 CALM      30.04R
JAFFREY        CLEAR     58  55  90 CALM      30.06R
KEENE            N/A    N/A N/A N/A MISG        N/A
LEBANON        CLEAR     58  54  86 S3        30.03R
MT WASHINGTON  FOG       45  45 100 W53         N/A  VSB 0
$$

VTZ005-007-008-260500-
VERMONT

CITY           SKY/WX    TMP DP  RH WIND       PRES   REMARKS
ST JOHNSBURY     N/A     59  54  83 MISG      30.03R
MONTPELIER     FAIR      63  53  70 NW5       30.09R
BURLINGTON     MOCLDY    69  53  56 NW7       30.05R
$$

MAZ007-012-024-CTZ003-RIZ002-NYZ038-NYZ072-260500-
SOUTHERN NEW ENGLAND AND NY

CITY           SKY/WX    TMP DP  RH WIND       PRES   REMARKS
BOSTON         CLEAR     77  52  41 W13       29.99R
WORCESTER      CLEAR     69  50  50 W10       30.06R
NANTUCKET      CLEAR     63  51  65 W17G24    30.02S
PROVIDENCE     PTCLDY    72  49  44 W9        30.02S
HARTFORD       MOCLDY    68  53  58 CALM      30.03S
ALBANY         PTCLDY    64  54  69 S6        30.04S
NEW YORK CITY  PTCLDY    82  53  36 W10       30.04S
$$

ANZ081-ANZ082-ANZ150-NHZ014-MEZ023>029-260500-
COASTAL MARINE OBSERVATIONS

STATION/POSITION TIME  TEMP    WIND        PRES    WAVE
                       AIR SEA DIR/SP/G            HT/PER
                 (UTC) (F)     (DEG/KT/KT) (MB)    (FT/S)
MOUNT DESERT ROC 0400   51     230/ 10/ 10 1013.7F
MATINICUS ROCK   0300   54     240/  7/  9 1013.7R
ISLE OF SHOALS   0300           10/ 16/ 18 1014.9R
JEFFREYS LEDGE   0308      52                N/A     3/ 8
CASHES LEDGE BUO 0350   53 51  120/  6/  8 1013.6F   4/ 8
GEORGES BANK BUO 0250   50 49              1016.8    4/ 8
$$

.............KEY..............
   WCI - WIND CHILL
   TC  - TEMPERATURE IN CELSIUS
   VSB - VISIBILITY IN MILES
   HX  - HEAT INDEX
   FAIR- INDICATES FEW OR NO CLOUDS BELOW 12,000 FT, WITH NO
         SIGNIFICANT WEATHER AND/OR OBSTRUCTIONS TO VISIBILITY.






USA.gov is the U.S. government's official web portal to all federal, state and local government web resources and services.